Printer-friendly version

IAU Minor Planet Center

Minor Planet Center

MPEC 2002-C83 : 2002 CE10

The following Minor Planet Electronic Circular may be linked-to from your own Web pages, but must not otherwise be redistributed electronically.


Read MPEC 2002-C82 Read MPEC 2002-C84


M.P.E.C. 2002-C83                                Issued 2002 Feb. 13, 17:00 UT

     The Minor Planet Electronic Circulars contain information on unusual
         minor planets and routine data on comets.  They are published
   on behalf of Commission 20 of the International Astronomical Union by the
          Minor Planet Center, Smithsonian Astrophysical Observatory,
                          Cambridge, MA 02138, U.S.A.

             Prepared using the Tamkin Foundation Computer Network

                              MPC@CFA.HARVARD.EDU
          URL http://cfa-www.harvard.edu/iau/mpc.html  ISSN 1523-6714

                                   2002 CE10

Observations:
     K02C10E  C2002 02 03.40054 09 19 14.04 +27 38 45.8          20.1        644
     K02C10E  C2002 02 03.41087 09 19 13.23 +27 38 51.1          20.0        644
     K02C10E  C2002 02 03.42138 09 19 12.37 +27 38 56.7          20.1        644
     K02C10E* C2002 02 06.31522 09 15 20.96 +28 05 14.5          19.4        704
     K02C10E  C2002 02 06.33016 09 15 19.86 +28 05 22.7          20.1        704
     K02C10E  C2002 02 06.34516 09 15 18.58 +28 05 31.7          19.7        704
     K02C10E  C2002 02 06.37533 09 15 16.07 +28 05 46.9          20.2        704
     K02C10E  C2002 02 07.22840 09 14 07.27 +28 13 24.4          19.6        704
     K02C10E  C2002 02 07.24252 09 14 06.03 +28 13 31.7          20.4        704
     K02C10E  C2002 02 07.25705 09 14 04.86 +28 13 39.7          20.2        704
     K02C10E  C2002 02 07.27135 09 14 03.66 +28 13 47.9          20.2        704
     K02C10E  C2002 02 07.28805 09 14 02.28 +28 13 56.1          19.6        704
     K02C10E  C2002 02 10.25035 09 10 00.74 +28 39 55.1          19.8        704
     K02C10E  C2002 02 10.26725 09 09 59.39 +28 40 04.7          20.3        704
     K02C10E  C2002 02 10.28172 09 09 58.18 +28 40 10.2          20.5        704
     K02C10E  C2002 02 10.31139 09 09 55.79 +28 40 26.6          20.1        704
     K02C10E  C2002 02 11.64290 09 08 06.29 +28 51 51.3                      413
     K02C10E  C2002 02 11.64521 09 08 06.09 +28 51 51.5                      413
     K02C10E  C2002 02 11.64750 09 08 05.93 +28 51 53.2                      413
     K02C10E  C2002 02 12.20595 09 07 20.12 +28 56 34.1          19.8 R      651
     K02C10E  C2002 02 12.20940 09 07 19.81 +28 56 37.2          19.7 R      651
     K02C10E  C2002 02 12.21044 09 07 19.68 +28 56 36.6          19.0 R      711
     K02C10E  C2002 02 12.21337 09 07 19.43 +28 56 38.5          20.1 R      651
     K02C10E  C2002 02 12.22090 09 07 18.81 +28 56 42.3          19.0 R      711
     K02C10E  C2002 02 12.22896 09 07 18.18 +28 56 46.3          19.5        704
     K02C10E  C2002 02 12.23136 09 07 17.94 +28 56 47.3          19.1 R      711
     K02C10E  C2002 02 12.24319 09 07 17.01 +28 56 53.5          19.7        704
     K02C10E  C2002 02 12.25266 09 07 16.16 +28 56 57.8          19.8        704
     K02C10E  C2002 02 12.25743 09 07 15.79 +28 57 00.6          19.6        704
     K02C10E  C2002 02 12.26866 09 07 14.84 +28 57 07.3          20.2        704
     K02C10E  C2002 02 12.27189 09 07 14.61 +28 57 08.0          19.4        704
     K02C10E  C2002 02 12.28340 09 07 13.61 +28 57 15.0          19.8        704
     K02C10E  C2002 02 12.28612 09 07 13.40 +28 57 16.6          19.9        704
     K02C10E  C2002 02 12.29951 09 07 12.25 +28 57 22.0          20.2        704
     K02C10E  C2002 02 12.96522 09 06 17.39 +29 02 55.9          19.4 R      966
     K02C10E  C2002 02 12.97936 09 06 16.25 +29 03 02.7          19.5 R      966
     K02C10E  C2002 02 13.16266 09 06 01.22 +29 04 34.3          19.2 R      711
     K02C10E  C2002 02 13.17311 09 06 00.24 +29 04 40.6          19.3 R      711
     K02C10E  C2002 02 13.18355 09 05 59.40 +29 04 45.7          19.6 R      711
     K02C10E  C2002 02 13.26398 09 05 52.76 +29 05 24.3          19.4 R      448
     K02C10E  C2002 02 13.27116 09 05 52.16 +29 05 26.7          19.0 R      448
     K02C10E  C2002 02 13.27898 09 05 51.58 +29 05 31.5          19.4 R      448

Observer details:
413 Siding Spring.  Observer R. H. McNaught.  1.0-m f/8 reflector + CCD.
448 Desert Moon Observatory.  Observer B. Stevens.  0.30-m f/6.3
    Schmidt-Cassegrain + CCD.
644 Palomar Mountain/NEAT.  Observers E. F. Helin, S. Pravdo, K. Lawrence,
    M. Hicks, E. Hovland, T. Bickler, J. Schroeder, L. Scherr, R. Thicksten,
    A. Deetz.  1.2-m Schmidt + CCD.
651 Grasslands Observatory, Tucson.  Observer J. E. McGaha.  0.62-m f/5.1
    reflector + CCD.
704 Lincoln Laboratory ETS, New Mexico.  Observers M. Blythe, F. Shelly,
    M. Bezpalko, R. Huber, L. Manguso, S. Adams, J. Piscitelli.  Measurers
    J. Stuart, R. Sayer, J. B. Evans, H. Viggh.  1.0-m f/2.15 reflector + CCD.
711 McDonald Observatory.  Observer P. J. Shelus.  0.76-m reflector + CCD.
966 Church Stretton.  Observer S. P. Laurie.  0.35-m f/11 Schmidt-Cassegrain
    + CCD.

Orbital elements:
2002 CE10
Epoch 2002 Jan. 26.0 TT = JDT 2452300.5                 MPC
M 340.00342              (2000.0)            P               Q
n   0.03921142     Peri.  130.54627     +0.88232154     +0.34742162
a   8.5807984      Node   146.88364     -0.02630244     -0.63715208
e   0.7807832      Incl.  144.46919     +0.46991156     -0.68799378
P  25.1            H   12.9           G   0.15
From 42 observations 2002 Feb. 3-13.

Ephemeris:
2002 CE10                a,e,i = 8.58, 0.78, 144                 q = 1.8811
Date    TT    R. A. (2000) Decl.     Delta      r     Elong.  Phase     V
2002 02 05    09 17.11   +27 53.4    3.984    4.953   168.1     2.3    19.6
2002 02 15    09 03.49   +29 19.7    3.947    4.886   159.8     4.0    19.7
2002 02 25    08 49.82   +30 34.3    3.950    4.819   148.1     6.2    19.8
2002 03 07    08 36.83   +31 35.0    3.989    4.751   135.8     8.4    19.9
2002 03 17    08 25.15   +32 21.4    4.057    4.683   123.7    10.2    19.9
2002 03 27    08 15.26   +32 54.8    4.148    4.614   111.9    11.6    20.0
2002 04 06    08 07.39   +33 17.4    4.253    4.545   100.6    12.5    20.1
2002 04 16    08 01.60   +33 31.7    4.365    4.476    89.8    13.0    20.1
2002 04 26    07 57.83   +33 40.0    4.477    4.406    79.5    13.0    20.1
2002 05 06    07 55.91   +33 44.3    4.583    4.336    69.7    12.6    20.1
2002 05 16    07 55.64   +33 46.0    4.677    4.266    60.2    11.9    20.1
2002 05 26    07 56.81   +33 46.5    4.755    4.195    51.2    10.8    20.1
2002 06 05    07 59.21   +33 46.5    4.814    4.124    42.6     9.6    20.0
2002 06 15    08 02.66   +33 47.0    4.850    4.053    34.4     8.1    19.9

Brian G. Marsden             (C) Copyright 2002 MPC           M.P.E.C. 2002-C83

Read MPEC 2002-C82 Read MPEC 2002-C84


Our Web policy. Index to the CBAT/MPC/ICQ pages.


Valid HTML 4.01!